DLH4TV EDDV-EDDM

Flight info

Callsign DLH4TV
Flight time 1h 9m
Altitude 31000
Route POVEL4F/27L POVEL Z94 GALMA T703 LULAR/N0394F300 T105 LANDU LANDU2B
Aircraft A320/M-SDE2E3FGIJ1LORWXYZ/HB1

Departure

Time 2026-05-03 20:16
Airport Hannover Airport (EDDV)

Arrival

Time 2026-05-03 21:25
Airport Munich Airport (EDDM)
Time Latitude Longitude Altitude Speed Heading
2026-05-03 20:15 52.45409 9.70916 183 ft 0 kts 272°
2026-05-03 20:15 52.45410 9.70893 182 ft 20 kts 272°
2026-05-03 20:16 52.45429 9.70182 174 ft 100 kts 272°
2026-05-03 20:16 52.45468 9.68725 311 ft 143 kts 272°
2026-05-03 20:16 52.45524 9.67177 1186 ft 133 kts 268°
2026-05-03 20:16 52.45569 9.65568 1790 ft 149 kts 267°
2026-05-03 20:17 52.45609 9.63742 2253 ft 171 kts 268°
2026-05-03 20:17 52.45650 9.61695 2671 ft 192 kts 268°
2026-05-03 20:17 52.45697 9.59367 3181 ft 217 kts 268°
2026-05-03 20:17 52.45745 9.56774 3901 ft 234 kts 266°
2026-05-03 20:18 52.45416 9.54171 4880 ft 237 kts 240°
2026-05-03 20:18 52.44296 9.52201 5857 ft 243 kts 214°
2026-05-03 20:18 52.42830 9.50778 6851 ft 247 kts 211°
2026-05-03 20:18 52.41323 9.49363 7824 ft 252 kts 211°
2026-05-03 20:19 52.39785 9.47922 8817 ft 257 kts 211°
2026-05-03 20:19 52.38117 9.46777 9607 ft 268 kts 194°
2026-05-03 20:19 52.36233 9.46900 9887 ft 280 kts 167°
2026-05-03 20:19 52.34518 9.48641 10170 ft 311 kts 138°
2026-05-03 20:20 52.33119 9.51506 10783 ft 329 kts 131°
2026-05-03 20:20 52.31729 9.54512 11631 ft 334 kts 131°
2026-05-03 20:20 52.30324 9.57572 12535 ft 339 kts 131°
2026-05-03 20:20 52.28897 9.60674 13425 ft 343 kts 131°
2026-05-03 20:21 52.27449 9.63805 14221 ft 347 kts 132°
2026-05-03 20:21 52.25983 9.66960 14977 ft 351 kts 132°
2026-05-03 20:21 52.24493 9.70151 15729 ft 355 kts 132°
2026-05-03 20:21 52.22983 9.73377 16449 ft 360 kts 133°
2026-05-03 20:22 52.21452 9.76637 17174 ft 364 kts 133°
2026-05-03 20:22 52.19902 9.79929 17908 ft 369 kts 133°
2026-05-03 20:22 52.18331 9.83267 18587 ft 373 kts 133°
2026-05-03 20:22 52.16748 9.86636 19237 ft 376 kts 133°
2026-05-03 20:23 52.15153 9.90026 19879 ft 379 kts 132°
2026-05-03 20:23 52.13543 9.93440 20529 ft 382 kts 132°
2026-05-03 20:23 52.11924 9.96868 21172 ft 384 kts 133°
2026-05-03 20:23 52.10287 10.00334 21818 ft 387 kts 133°
2026-05-03 20:24 52.08642 10.03815 22446 ft 389 kts 133°
2026-05-03 20:24 52.06986 10.07309 23077 ft 392 kts 133°
2026-05-03 20:24 52.05316 10.10821 23668 ft 394 kts 133°
2026-05-03 20:24 52.03631 10.14360 24191 ft 397 kts 133°
2026-05-03 20:25 52.01936 10.17914 24691 ft 400 kts 133°
2026-05-03 20:25 52.00230 10.21494 25196 ft 402 kts 133°
2026-05-03 20:25 51.98515 10.25096 25662 ft 405 kts 133°
2026-05-03 20:25 51.96785 10.28725 26147 ft 408 kts 133°
2026-05-03 20:26 51.95045 10.32365 26587 ft 411 kts 133°
2026-05-03 20:26 51.93285 10.36036 27024 ft 414 kts 133°
2026-05-03 20:26 51.91510 10.39729 27486 ft 416 kts 133°
2026-05-03 20:26 51.89722 10.43442 27946 ft 419 kts 133°
2026-05-03 20:27 51.87925 10.47168 28402 ft 422 kts 133°
2026-05-03 20:27 51.86112 10.50921 28848 ft 424 kts 133°
2026-05-03 20:27 51.84288 10.54692 29279 ft 427 kts 133°
2026-05-03 20:27 51.82457 10.58479 29705 ft 429 kts 133°
2026-05-03 20:28 51.80612 10.62294 30118 ft 432 kts 133°
2026-05-03 20:28 51.78757 10.66123 30482 ft 434 kts 133°
2026-05-03 20:28 51.76889 10.69964 30822 ft 436 kts 133°
2026-05-03 20:29 51.73198 10.77550 30943 ft 414 kts 133°
2026-05-03 20:29 51.71457 10.81144 30945 ft 400 kts 133°
2026-05-03 20:29 51.69751 10.84644 30945 ft 395 kts 133°
2026-05-03 20:30 51.66354 10.91562 30950 ft 393 kts 133°
2026-05-03 20:30 51.62963 10.98448 30950 ft 392 kts 133°
2026-05-03 20:31 51.59570 11.05327 30950 ft 392 kts 133°
2026-05-03 20:31 51.56173 11.12199 30948 ft 392 kts 133°
2026-05-03 20:32 51.52782 11.19062 30927 ft 392 kts 133°
2026-05-03 20:32 51.49377 11.25924 30916 ft 393 kts 133°
2026-05-03 20:33 51.45963 11.32781 30921 ft 393 kts 133°
2026-05-03 20:33 51.42545 11.39629 30928 ft 393 kts 133°
2026-05-03 20:34 51.38757 11.45724 30934 ft 385 kts 149°
2026-05-03 20:34 51.34135 11.49823 30936 ft 381 kts 157°
2026-05-03 20:35 51.29423 11.53741 30925 ft 381 kts 156°
2026-05-03 20:35 51.24713 11.57659 30930 ft 382 kts 156°
2026-05-03 20:36 51.19990 11.61576 30922 ft 383 kts 156°
2026-05-03 20:36 51.15256 11.65481 30927 ft 383 kts 157°
2026-05-03 20:37 51.10250 11.67923 30936 ft 374 kts 177°
2026-05-03 20:37 51.05937 11.68210 30936 ft 373 kts 181°
2026-05-03 20:38 51.00753 11.68499 30940 ft 373 kts 181°
2026-05-03 20:38 50.95569 11.68802 30944 ft 373 kts 181°
2026-05-03 20:39 50.90388 11.69091 30948 ft 373 kts 181°
2026-05-03 20:39 50.85203 11.69371 30953 ft 373 kts 181°
2026-05-03 20:40 50.80020 11.69655 30960 ft 373 kts 181°
2026-05-03 20:40 50.74830 11.69943 30960 ft 373 kts 181°
2026-05-03 20:41 50.69661 11.70767 30948 ft 377 kts 168°
2026-05-03 20:41 50.64658 11.73335 30930 ft 379 kts 165°
2026-05-03 20:42 50.59653 11.75913 30949 ft 380 kts 165°
2026-05-03 20:42 50.54624 11.78513 30958 ft 381 kts 165°
2026-05-03 20:43 50.49593 11.81110 30968 ft 381 kts 165°
2026-05-03 20:43 50.44608 11.83971 30976 ft 383 kts 160°
2026-05-03 20:44 50.39721 11.87300 30981 ft 383 kts 160°
2026-05-03 20:44 50.34822 11.90621 30985 ft 383 kts 160°
2026-05-03 20:45 50.29927 11.93928 30985 ft 383 kts 160°
2026-05-03 20:45 50.25025 11.97221 30983 ft 384 kts 160°
2026-05-03 20:46 50.20119 12.00512 30981 ft 384 kts 160°
2026-05-03 20:46 50.15213 12.03813 30970 ft 384 kts 159°
2026-05-03 20:47 50.10299 12.07118 30977 ft 385 kts 159°
2026-05-03 20:47 50.05382 12.10404 30978 ft 384 kts 159°
2026-05-03 20:48 50.00464 12.13676 30966 ft 384 kts 159°
2026-05-03 20:48 49.95546 12.16947 30966 ft 384 kts 160°
2026-05-03 20:49 49.90622 12.20196 30972 ft 384 kts 160°
2026-05-03 20:49 49.85700 12.23444 30966 ft 385 kts 159°
2026-05-03 20:50 49.80779 12.26705 30972 ft 385 kts 159°
2026-05-03 20:50 49.75854 12.29966 30951 ft 385 kts 159°
2026-05-03 20:51 49.71080 12.33690 30956 ft 388 kts 146°
2026-05-03 20:51 49.66762 12.38733 30956 ft 389 kts 145°
2026-05-03 20:52 49.62456 12.43781 30958 ft 389 kts 145°
2026-05-03 20:52 49.58115 12.48842 30968 ft 395 kts 145°
2026-05-03 20:52 49.55929 12.51384 30586 ft 392 kts 145°
2026-05-03 20:53 49.53756 12.53904 30101 ft 389 kts 145°
2026-05-03 20:53 49.51602 12.56399 29556 ft 386 kts 146°
2026-05-03 20:53 49.49464 12.58871 29038 ft 383 kts 146°
2026-05-03 20:53 49.47343 12.61320 28505 ft 380 kts 146°
2026-05-03 20:54 49.45236 12.63753 27976 ft 377 kts 145°
2026-05-03 20:54 49.41298 12.69012 26977 ft 373 kts 140°
2026-05-03 20:54 49.39228 12.71331 26504 ft 365 kts 155°
2026-05-03 20:55 49.36886 12.72690 26039 ft 358 kts 170°
2026-05-03 20:55 49.34431 12.73064 25581 ft 352 kts 185°
2026-05-03 20:55 49.32038 12.72476 25128 ft 346 kts 198°
2026-05-03 20:55 49.29829 12.71081 24668 ft 343 kts 206°
2026-05-03 20:56 49.27674 12.69541 24217 ft 341 kts 206°
2026-05-03 20:56 49.25529 12.68023 23771 ft 339 kts 206°
2026-05-03 20:56 49.23394 12.66514 23317 ft 337 kts 206°
2026-05-03 20:56 49.21278 12.65016 22833 ft 334 kts 206°
2026-05-03 20:57 49.19177 12.63517 22376 ft 331 kts 206°
2026-05-03 20:57 49.17102 12.62028 21949 ft 328 kts 206°
2026-05-03 20:57 49.15046 12.60550 21527 ft 325 kts 206°
2026-05-03 20:57 49.13007 12.59085 21098 ft 322 kts 206°
2026-05-03 20:58 49.11012 12.57653 20682 ft 320 kts 206°
2026-05-03 20:58 49.08978 12.56198 20272 ft 317 kts 206°
2026-05-03 20:58 49.07016 12.54796 19895 ft 314 kts 206°
2026-05-03 20:58 49.05021 12.53371 19514 ft 312 kts 206°
2026-05-03 20:59 49.03090 12.51991 19152 ft 309 kts 205°
2026-05-03 20:59 49.01155 12.50609 18785 ft 307 kts 205°
2026-05-03 20:59 48.99215 12.49221 18147 ft 313 kts 205°
2026-05-03 20:59 48.97259 12.47822 17878 ft 306 kts 205°
2026-05-03 21:00 48.95340 12.46452 17518 ft 305 kts 205°
2026-05-03 21:00 48.94061 12.45541 17166 ft 307 kts 205°
2026-05-03 21:00 48.91479 12.43710 16576 ft 306 kts 205°
2026-05-03 21:00 48.89552 12.42340 16140 ft 305 kts 205°
2026-05-03 21:01 48.87632 12.40973 15712 ft 305 kts 205°
2026-05-03 21:01 48.85720 12.39615 15282 ft 300 kts 205°
2026-05-03 21:01 48.83832 12.38277 14861 ft 300 kts 205°
2026-05-03 21:01 48.81938 12.36933 14451 ft 301 kts 205°
2026-05-03 21:02 48.80036 12.35588 14046 ft 302 kts 205°
2026-05-03 21:02 48.78132 12.34310 13822 ft 296 kts 204°
2026-05-03 21:02 48.76242 12.33084 13419 ft 296 kts 203°
2026-05-03 21:02 48.74346 12.31872 12997 ft 296 kts 203°
2026-05-03 21:03 48.72446 12.30659 12584 ft 296 kts 203°
2026-05-03 21:03 48.70554 12.29447 12175 ft 295 kts 203°
2026-05-03 21:03 48.68663 12.28227 11770 ft 295 kts 203°
2026-05-03 21:03 48.66782 12.27015 11370 ft 294 kts 203°
2026-05-03 21:04 48.64903 12.25803 10976 ft 293 kts 202°
2026-05-03 21:04 48.63035 12.24596 10585 ft 292 kts 202°
2026-05-03 21:04 48.61168 12.23392 10198 ft 291 kts 202°
2026-05-03 21:04 48.59306 12.22191 9811 ft 290 kts 202°
2026-05-03 21:05 48.57456 12.20997 9413 ft 289 kts 202°
2026-05-03 21:05 48.55613 12.19813 9005 ft 287 kts 202°
2026-05-03 21:05 48.53779 12.18634 8592 ft 286 kts 202°
2026-05-03 21:05 48.51959 12.17463 8198 ft 284 kts 202°
2026-05-03 21:06 48.50146 12.16298 7808 ft 282 kts 202°
2026-05-03 21:06 48.48347 12.15139 7411 ft 281 kts 203°
2026-05-03 21:06 48.46556 12.13986 7030 ft 280 kts 203°
2026-05-03 21:06 48.44770 12.12839 6641 ft 278 kts 203°
2026-05-03 21:07 48.42998 12.11706 6258 ft 276 kts 204°
2026-05-03 21:07 48.41255 12.10593 5852 ft 268 kts 204°
2026-05-03 21:07 48.39580 12.09525 5456 ft 255 kts 204°
2026-05-03 21:07 48.38087 12.08251 5071 ft 241 kts 221°
2026-05-03 21:08 48.36988 12.06436 4676 ft 230 kts 239°
2026-05-03 21:08 48.36348 12.04314 4413 ft 215 kts 257°
2026-05-03 21:08 48.36110 12.02178 4239 ft 201 kts 265°
2026-05-03 21:08 48.35960 12.00130 4019 ft 193 kts 265°
2026-05-03 21:09 48.35815 11.98185 3788 ft 183 kts 266°
2026-05-03 21:09 48.35678 11.96349 3560 ft 169 kts 266°
2026-05-03 21:09 48.35553 11.94684 3359 ft 150 kts 266°
2026-05-03 21:09 48.35438 11.93159 3156 ft 143 kts 266°
2026-05-03 21:10 48.35328 11.91688 2964 ft 140 kts 266°
2026-05-03 21:10 48.35219 11.90234 2779 ft 139 kts 267°
2026-05-03 21:10 48.35110 11.88789 2600 ft 139 kts 266°
2026-05-03 21:10 48.35000 11.87336 2415 ft 141 kts 266°
2026-05-03 21:11 48.34888 11.85852 2228 ft 145 kts 265°
2026-05-03 21:11 48.34773 11.84350 2041 ft 145 kts 265°
2026-05-03 21:11 48.34657 11.82832 1842 ft 147 kts 265°
2026-05-03 21:11 48.34564 11.81245 2296 ft 150 kts 269°
2026-05-03 21:12 48.34501 11.79702 3093 ft 149 kts 269°
2026-05-03 21:12 48.34339 11.78144 3587 ft 147 kts 260°
2026-05-03 21:12 48.34166 11.76627 3983 ft 156 kts 264°
2026-05-03 21:12 48.34011 11.74843 4004 ft 188 kts 264°
2026-05-03 21:13 48.33838 11.72743 3996 ft 215 kts 264°
2026-05-03 21:13 48.33528 11.70495 4002 ft 224 kts 247°
2026-05-03 21:13 48.32535 11.68667 4008 ft 231 kts 221°
2026-05-03 21:13 48.31061 11.67709 4010 ft 238 kts 189°
2026-05-03 21:14 48.29423 11.68075 4010 ft 244 kts 158°
2026-05-03 21:14 48.27920 11.69311 4010 ft 248 kts 150°
2026-05-03 21:14 48.26608 11.70972 4008 ft 250 kts 125°
2026-05-03 21:14 48.25903 11.73343 4009 ft 250 kts 107°
2026-05-03 21:15 48.25424 11.75852 4009 ft 251 kts 104°
2026-05-03 21:15 48.25132 11.78422 4009 ft 250 kts 95°
2026-05-03 21:15 48.24799 11.80986 4010 ft 250 kts 103°
2026-05-03 21:15 48.24362 11.83514 4008 ft 250 kts 104°
2026-05-03 21:16 48.23913 11.86041 4012 ft 251 kts 104°
2026-05-03 21:16 48.23466 11.88528 4007 ft 250 kts 104°
2026-05-03 21:16 48.23019 11.91049 4006 ft 250 kts 104°
2026-05-03 21:16 48.22569 11.93568 4004 ft 250 kts 104°
2026-05-03 21:17 48.22139 11.96131 4002 ft 250 kts 98°
2026-05-03 21:17 48.22142 11.97841 4004 ft 248 kts 80°
2026-05-03 21:17 48.22607 12.01223 4004 ft 248 kts 75°
2026-05-03 21:17 48.23024 12.03731 4004 ft 248 kts 70°
2026-05-03 21:18 48.23886 12.05931 4002 ft 245 kts 47°
2026-05-03 21:18 48.25057 12.07747 4000 ft 238 kts 32°
2026-05-03 21:18 48.26466 12.09012 3997 ft 234 kts 22°
2026-05-03 21:18 48.28006 12.09681 3993 ft 230 kts
2026-05-03 21:19 48.29559 12.10030 3993 ft 225 kts
2026-05-03 21:19 48.31088 12.10343 3912 ft 214 kts
2026-05-03 21:19 48.32514 12.10318 3786 ft 204 kts 346°
2026-05-03 21:19 48.33837 12.09750 3664 ft 193 kts 330°
2026-05-03 21:20 48.34616 12.09109 3594 ft 184 kts 326°
2026-05-03 21:20 48.36030 12.07799 3224 ft 178 kts 324°
2026-05-03 21:20 48.36736 12.07133 3044 ft 177 kts 324°
2026-05-03 21:20 48.37707 12.06030 2998 ft 174 kts 305°
2026-05-03 21:21 48.38147 12.04355 2998 ft 174 kts 283°
2026-05-03 21:21 48.38093 12.02546 3005 ft 178 kts 250°
2026-05-03 21:21 48.37376 12.01008 3005 ft 185 kts 223°
2026-05-03 21:21 48.36302 11.99913 3008 ft 188 kts 216°
2026-05-03 21:22 48.35277 11.98782 3330 ft 176 kts 233°
2026-05-03 21:22 48.34823 11.97279 3809 ft 160 kts 263°
2026-05-03 21:22 48.34786 11.95539 3815 ft 172 kts 275°
2026-05-03 21:22 48.34934 11.93691 3587 ft 182 kts 280°
2026-05-03 21:23 48.35117 11.91787 3090 ft 187 kts 275°
2026-05-03 21:23 48.35129 11.89843 2696 ft 185 kts 268°
2026-05-03 21:23 48.34990 11.87935 2363 ft 182 kts 264°
2026-05-03 21:23 48.34846 11.86061 2125 ft 178 kts 266°
2026-05-03 21:24 48.34739 11.84219 1955 ft 176 kts 265°
2026-05-03 21:24 48.34598 11.82382 1763 ft 178 kts 264°
2026-05-03 21:24 48.34472 11.80622 1594 ft 160 kts 265°
2026-05-03 21:24 48.34358 11.79043 1476 ft 140 kts 266°
2026-05-03 21:25 48.34277 11.77732 1460 ft 106 kts 263°
2026-05-03 21:25 48.34211 11.76865 1470 ft 65 kts 263°
2026-05-03 21:25 48.34224 11.76342 1466 ft 32 kts 293°
2026-05-03 21:25 48.34261 11.76215 1465 ft 0 kts 293°
2026-05-03 21:26 48.34280 11.76149 1466 ft 11 kts 292°
2026-05-03 21:27 48.34311 11.76034 1471 ft 14 kts 292°
2026-05-03 21:27 48.34356 11.75873 1464 ft 20 kts 298°
2026-05-03 21:27 48.34478 11.75775 1465 ft 22 kts 353°
2026-05-03 21:27 48.34629 11.75741 1466 ft 13 kts 345°
2026-05-03 21:28 48.34667 11.75681 1461 ft 10 kts 287°
2026-05-03 21:28 48.34661 11.75561 1466 ft 13 kts 261°
2026-05-03 21:28 48.34637 11.75503 1464 ft 3 kts 181°
2026-05-03 21:28 48.34611 11.75510 1463 ft 4 kts 171°
2026-05-03 21:29 48.34586 11.75515 1461 ft 3 kts 173°
2026-05-03 21:29 48.34569 11.75517 1463 ft 0 kts 174°